Wind_Speed
36 40 43 46 49 50 51 51 51 50 49 47 46 46 48 49 50 50 52 52 54 55 56 56 55 54 52 51 50 49 47 45 44 42 41 40 39 38 37 37 36 35 35
31 34 37 40 42 45 48 49 50 49 47 46 46 45 47 47 50 50 52 52 52 53 54 54 55 55 54 53 52 49 48 46 44 43 43 42 41 40 39 38 38 37 36
26 30 34 36 38 39 42 44 46 46 46 45 45 46 46 46 48 49 50 52 51 51 51 51 52 52 51 52 51 49 48 47 46 45 44 43 42 42 42 40 40 40 38
18 22 27 32 33 34 36 39 42 44 44 44 44 45 44 45 45 47 48 50 50 51 51 51 50 51 51 51 51 50 49 48 47 46 45 45 45 44 42 41 41 40 38
10 13 18 23 27 29 32 35 38 40 42 42 41 40 40 42 44 45 46 47 48 50 52 51 50 50 51 50 50 51 51 50 49 48 46 46 45 44 42 40 40 39 38
5 8 12 16 19 23 27 30 32 35 37 38 38 38 38 39 41 42 44 45 47 49 51 50 48 48 49 50 50 49 49 49 49 48 47 46 44 43 42 41 39 39 38
7 6 7 11 13 18 21 24 26 29 31 32 33 34 36 37 37 38 38 39 41 42 43 43 44 45 47 49 49 49 49 49 48 47 46 44 43 43 42 41 40 40 40
7 7 6 8 10 13 15 18 18 22 27 29 29 29 31 33 33 35 36 38 39 41 43 44 45 46 47 48 50 51 50 49 47 47 46 45 44 44 43 42 42 42 43
7 7 8 8 8 9 10 12 13 17 20 24 25 25 27 29 31 34 35 37 37 38 40 42 43 45 45 46 48 50 50 49 49 48 47 47 46 45 44 44 45 45 46
8 8 9 8 7 7 8 9 11 13 16 19 22 23 25 27 29 30 32 34 36 37 37 40 41 43 45 46 47 47 48 49 49 49 50 50 49 49 49 48 48 48 48
7 9 9 8 6 5 7 8 9 11 12 15 19 21 24 26 28 28 29 32 35 38 39 39 40 41 42 44 44 44 47 48 49 49 50 50 50 51 51 51 50 50 49
6 6 5 5 4 3 3 6 8 11 12 14 17 21 23 25 27 28 29 30 32 34 37 39 40 42 43 44 44 45 46 47 47 49 50 51 51 52 52 52 51 50 49
3 1 1 1 3 3 4 6 7 9 11 12 14 18 21 24 26 27 29 30 31 34 35 38 41 42 44 45 45 45 46 48 49 50 50 51 52 51 51 51 51 49 48
1 2 2 3 3 4 5 7 8 9 12 14 16 19 21 24 26 28 30 32 33 35 38 39 41 43 45 47 48 49 49 50 50 51 52 52 53 52 51 50 49 48 48
3 3 4 5 5 6 7 9 11 13 15 17 20 22 24 26 29 31 33 35 37 39 40 41 42 44 45 47 49 51 51 51 52 52 52 52 52 51 50 49 49 49 48
4 5 6 7 8 10 12 14 16 18 20 22 24 26 28 31 33 35 37 39 41 43 44 45 45 46 47 48 50 50 50 50 51 50 51 50 50 50 50 50 50 49 49
8 9 10 12 13 15 17 19 21 23 25 27 29 31 34 36 38 40 42 43 45 46 48 49 50 51 51 51 52 53 53 52 51 51 51 51 51 51 51 50 49 49 49
12 13 15 17 19 21 23 24 26 28 31 33 35 37 39 40 43 45 46 47 48 49 50 50 52 53 54 54 55 56 56 55 54 54 53 53 53 53 53 52 52 51 51
16 18 20 22 24 26 27 29 31 34 36 38 40 42 43 45 47 49 50 51 52 53 54 55 56 56 57 57 57 56 56 57 56 56 56 56 55 56 56 55 54 54 53
20 22 24 26 28 30 32 34 36 38 41 42 44 46 47 49 50 52 53 54 55 56 57 58 59 59 58 58 59 57 57 58 58 58 58 58 58 58 58 57 56 56 55
24 26 28 30 32 33 35 37 38 41 43 45 48 50 51 53 54 55 56 57 58 59 60 59 59 60 60 59 60 60 60 59 59 59 60 60 59 59 58 58 57 56 55
27 29 31 33 34 36 38 40 42 44 46 49 51 53 55 56 58 59 60 60 61 61 61 61 61 61 61 60 60 61 61 61 61 60 60 61 61 61 60 59 58 57 56
31 32 34 36 38 40 41 43 46 49 51 53 54 56 58 58 59 61 62 62 63 63 62 61 60 59 59 60 60 60 61 62 62 61 60 60 60 60 59 58 57 56 55
34 35 37 39 41 43 45 48 50 53 54 55 57 58 59 60 60 60 61 61 61 61 60 60 59 58 57 58 58 59 60 60 61 61 61 60 58 58 57 56 56 55 54
36 38 39 41 43 46 49 52 54 55 56 57 58 58 58 58 58 58 58 58 58 58 57 56 56 55 55 55 56 57 58 58 58 58 58 59 58 57 56 55 54 54 53
38 40 42 44 47 50 52 55 56 57 57 57 56 55 55 55 55 55 55 55 54 54 53 52 52 52 52 52 53 55 55 56 56 56 56 57 56 56 55 54 53 53 52
Wind_Direction
235 233 231 231 230 229 228 227 226 225 224 224 226 228 231 231 229 230 231 232 230 231 233 235 237 238 240 242 243 246 248 250 251 252 254 254 255 256 256 258 259 262 265
233 231 229 228 229 228 227 226 224 224 224 225 227 229 229 229 229 230 230 229 230 230 232 234 237 238 241 242 244 246 246 248 250 251 253 253 256 256 257 259 261 262 264
233 230 227 227 227 227 226 225 223 223 223 225 227 228 227 229 230 230 231 231 232 230 230 234 236 239 242 244 245 244 246 248 250 250 252 254 256 256 258 259 261 264 265
230 228 226 226 227 227 226 224 221 220 221 223 226 227 227 229 230 230 232 232 232 231 232 234 237 239 242 244 245 246 248 249 249 251 254 254 256 258 259 260 262 263 264
214 215 219 220 223 224 224 223 223 222 222 225 226 227 228 228 230 231 232 232 231 232 234 235 239 241 242 244 245 247 249 249 249 252 253 255 256 258 259 260 260 261 263
167 192 207 214 216 217 218 220 221 220 222 224 226 228 228 227 228 231 231 232 232 234 236 238 239 241 241 242 244 246 249 249 250 251 253 255 257 257 257 258 258 260 262
150 166 186 195 202 206 209 209 213 218 220 222 224 227 228 226 226 229 230 231 234 236 236 238 239 240 240 241 242 244 247 248 250 251 253 255 257 257 258 259 260 262 264
123 135 151 175 186 195 196 202 210 217 220 221 224 227 227 228 228 231 231 233 236 238 237 238 241 241 242 243 245 247 248 250 249 250 252 254 256 257 259 260 261 263 265
117 132 140 148 167 181 186 196 205 211 216 222 227 229 228 229 231 232 231 232 233 237 239 240 241 243 244 245 247 247 249 249 250 250 252 254 257 257 259 260 262 264 266
115 126 135 137 155 181 191 199 203 213 220 224 228 230 232 234 236 237 236 237 239 241 241 243 244 245 246 248 249 249 250 250 251 251 254 256 258 259 261 262 263 265 266
104 118 123 128 140 166 191 204 212 219 226 232 234 235 236 237 240 241 242 242 243 243 245 246 247 247 248 249 250 251 252 252 253 255 257 258 259 260 260 262 262 264 265
94 104 121 135 151 170 199 220 230 230 235 239 239 239 240 241 245 245 247 248 246 247 248 248 249 250 250 251 251 253 254 254 254 256 258 258 259 260 260 260 260 261 263
89 106 156 215 233 230 227 239 245 249 250 250 249 248 249 250 251 252 253 253 253 252 252 252 251 252 253 253 253 254 254 255 256 256 257 258 259 260 260 260 260 260 260
28 325 304 304 282 263 255 260 266 271 266 265 263 258 256 255 254 255 258 258 257 257 256 256 256 257 257 257 257 258 257 257 257 257 258 258 258 258 258 258 257 256 257
356 330 305 292 291 284 277 277 278 280 279 275 273 269 266 265 263 261 261 262 261 261 260 260 260 260 260 260 259 259 258 257 258 258 257 256 255 255 255 253 254 254 254
340 325 313 306 298 290 289 287 285 284 284 282 279 276 273 272 270 268 266 265 264 262 261 261 261 261 261 260 258 257 256 257 257 255 255 254 253 253 252 252 253 254 255
309 306 306 303 298 297 296 294 291 287 286 285 282 279 276 274 272 271 269 267 266 265 263 262 262 262 261 260 260 258 257 256 255 255 255 254 252 251 250 250 251 253 255
309 306 304 301 299 298 294 291 289 286 285 285 284 282 280 276 275 274 271 269 268 266 265 264 263 263 262 261 259 258 257 255 255 254 252 251 251 251 250 251 252 253 254
310 309 306 304 301 300 297 294 291 290 289 287 286 284 281 279 277 276 273 271 269 268 267 265 265 263 262 261 260 259 257 255 254 252 251 250 250 251 250 251 252 253 253
314 312 309 306 303 302 300 297 296 295 293 290 288 287 285 282 280 277 275 273 272 270 268 267 266 264 263 261 260 259 257 254 253 252 250 249 249 249 250 251 251 252 253
313 311 310 308 306 304 302 301 299 297 295 293 291 288 287 285 282 280 277 275 274 272 269 268 267 266 264 262 260 258 256 254 253 251 251 250 249 249 249 249 250 251 252
313 311 310 308 306 304 303 302 301 299 297 295 294 291 289 286 284 282 279 277 275 273 271 269 268 266 264 262 260 258 256 254 253 252 251 250 249 249 250 251 251 252 252
312 310 309 307 306 305 304 303 302 301 300 298 296 294 291 289 287 285 282 280 278 275 272 271 269 266 264 261 259 258 256 254 252 251 250 249 249 249 249 250 250 250 250
311 311 309 308 308 307 306 305 303 302 301 299 297 295 293 291 290 288 285 282 280 277 275 272 270 266 262 259 257 255 254 252 251 250 249 247 247 247 247 247 247 247 248
312 312 310 309 308 308 308 307 305 304 303 301 299 298 295 294 292 290 287 285 282 279 276 272 270 267 263 259 256 254 252 251 249 248 247 246 245 245 244 245 245 245 246
313 312 312 311 310 310 309 308 307 306 305 304 302 300 298 296 294 291 289 287 284 281 277 274 270 267 263 258 255 253 252 250 248 247 245 244 243 243 242 242 243 243 243
Height
5638 5642 5648 5653 5660 5667 5674 5680 5686 5693 5699 5705 5711 5716 5721 5727 5732 5737 5742 5748 5752 5757 5762 5767 5771 5774 5778 5782 5785 5788 5791 5793 5795 5798 5800 5801 5803 5805 5805 5806 5807 5807 5808
5631 5635 5639 5645 5651 5658 5664 5670 5677 5683 5690 5696 5703 5708 5713 5718 5723 5728 5733 5739 5743 5748 5753 5757 5761 5765 5769 5772 5775 5778 5781 5784 5787 5789 5790 5793 5795 5796 5797 5798 5799 5799 5800
5625 5628 5633 5638 5644 5650 5656 5661 5668 5675 5682 5688 5694 5699 5704 5709 5714 5720 5725 5730 5735 5739 5744 5748 5752 5756 5760 5763 5766 5769 5772 5775 5777 5779 5782 5784 5786 5787 5788 5789 5790 5791 5792
5620 5623 5628 5632 5638 5643 5649 5654 5660 5667 5674 5680 5686 5691 5696 5701 5707 5712 5717 5722 5726 5730 5735 5739 5743 5747 5750 5754 5757 5760 5763 5765 5767 5770 5772 5774 5776 5777 5779 5780 5781 5782 5783
5618 5621 5624 5628 5633 5638 5643 5648 5654 5661 5667 5673 5679 5684 5689 5695 5699 5704 5708 5713 5718 5722 5726 5730 5734 5738 5741 5745 5748 5750 5753 5756 5758 5760 5762 5764 5766 5768 5769 5771 5772 5773 5774
5618 5620 5622 5625 5629 5634 5639 5644 5649 5655 5661 5667 5672 5677 5682 5687 5691 5696 5700 5705 5710 5714 5718 5722 5725 5729 5732 5735 5738 5741 5743 5746 5748 5750 5752 5754 5757 5758 5759 5761 5762 5763 5764
5620 5621 5622 5625 5627 5631 5636 5641 5646 5651 5656 5661 5666 5671 5676 5680 5684 5688 5693 5697 5701 5705 5709 5712 5716 5720 5723 5726 5728 5731 5734 5736 5738 5740 5742 5744 5746 5748 5749 5751 5752 5753 5754
5621 5622 5623 5625 5627 5631 5635 5639 5643 5648 5652 5657 5661 5665 5669 5673 5677 5682 5686 5690 5694 5697 5701 5704 5707 5710 5713 5716 5719 5721 5723 5726 5728 5730 5732 5734 5736 5737 5739 5741 5742 5743 5744
5623 5623 5624 5626 5628 5631 5635 5638 5642 5646 5650 5654 5657 5660 5664 5668 5671 5675 5678 5682 5685 5689 5692 5695 5698 5701 5704 5706 5708 5711 5713 5715 5717 5720 5722 5723 5725 5727 5728 5730 5731 5732 5733
5625 5625 5626 5628 5630 5632 5635 5638 5641 5644 5647 5650 5653 5656 5659 5662 5665 5668 5671 5674 5678 5681 5684 5687 5689 5691 5693 5696 5698 5701 5703 5704 5707 5709 5711 5713 5714 5716 5717 5718 5719 5720 5721
5627 5627 5628 5629 5631 5633 5635 5637 5639 5642 5644 5647 5649 5651 5654 5657 5659 5662 5665 5667 5670 5673 5675 5677 5679 5681 5683 5685 5688 5690 5691 5693 5695 5697 5699 5701 5702 5703 5705 5706 5707 5708 5708
5629 5629 5630 5630 5631 5632 5634 5636 5638 5640 5642 5644 5645 5647 5649 5651 5653 5655 5657 5659 5661 5663 5665 5667 5669 5671 5673 5675 5677 5678 5680 5682 5683 5685 5686 5688 5689 5690 5692 5693 5694 5695 5696
5630 5630 5631 5631 5632 5632 5634 5635 5636 5637 5639 5639 5640 5641 5643 5644 5646 5648 5649 5651 5652 5653 5655 5656 5658 5660 5661 5663 5665 5666 5668 5669 5670 5672 5673 5674 5676 5677 5678 5679 5681 5682 5683
5631 5631 5631 5631 5631 5631 5632 5633 5633 5634 5634 5635 5635 5636 5636 5637 5638 5639 5640 5641 5642 5643 5644 5645 5647 5648 5648 5649 5651 5653 5654 5655 5656 5658 5659 5660 5662 5663 5664 5666 5667 5668 5670
5632 5631 5630 5630 5629 5629 5630 5630 5629 5630 5629 5629 5629 5629 5629 5629 5629 5629 5630 5631 5631 5632 5632 5633 5634 5634 5635 5635 5636 5638 5639 5640 5642 5643 5644 5645 5647 5648 5650 5652 5653 5655 5657
5632 5631 5629 5628 5627 5627 5625 5625 5624 5623 5623 5622 5621 5620 5620 5619 5619 5618 5618 5618 5618 5618 5619 5619 5620 5620 5620 5621 5621 5622 5623 5625 5626 5627 5629 5630 5632 5634 5636 5637 5639 5641 5643
5630 5629 5627 5626 5624 5622 5621 5619 5617 5615 5614 5613 5612 5610 5609 5607 5606 5605 5604 5604 5603 5603 5603 5604 5604 5604 5604 5604 5605 5605 5606 5608 5609 5611 5613 5615 5617 5619 5621 5623 5625 5627 5629
5628 5626 5624 5622 5619 5617 5615 5612 5610 5607 5605 5603 5601 5599 5596 5594 5592 5590 5589 5587 5587 5586 5586 5586 5586 5586 5586 5586 5587 5587 5589 5591 5592 5594 5596 5598 5601 5603 5605 5608 5610 5613 5615
5623 5621 5619 5616 5613 5609 5606 5604 5600 5597 5594 5591 5588 5584 5581 5579 5576 5574 5572 5570 5569 5568 5567 5567 5567 5568 5568 5567 5568 5568 5570 5572 5574 5576 5579 5581 5584 5587 5589 5592 5595 5598 5600
5618 5615 5612 5608 5605 5601 5597 5594 5590 5586 5582 5577 5573 5569 5565 5561 5558 5555 5553 5551 5549 5548 5548 5547 5547 5547 5547 5547 5548 5549 5550 5553 5555 5558 5560 5563 5566 5569 5572 5575 5578 5582 5585
5612 5608 5604 5600 5596 5592 5587 5583 5578 5574 5569 5564 5558 5553 5548 5544 5540 5536 5533 5531 5529 5528 5527 5527 5526 5526 5526 5527 5527 5528 5530 5532 5535 5538 5541 5544 5547 5551 5554 5558 5562 5565 5569
5605 5601 5596 5591 5586 5581 5576 5571 5566 5560 5554 5548 5542 5536 5530 5525 5520 5516 5513 5510 5507 5505 5504 5504 5504 5503 5503 5504 5505 5506 5508 5511 5515 5519 5522 5525 5529 5532 5536 5541 5545 5549 5553
5597 5592 5587 5582 5576 5570 5565 5558 5552 5545 5538 5531 5524 5517 5510 5504 5499 5494 5490 5487 5484 5482 5481 5480 5480 5480 5480 5481 5482 5484 5486 5489 5493 5498 5502 5506 5510 5514 5519 5523 5528 5532 5537
5588 5583 5577 5571 5565 5558 5551 5544 5536 5529 5521 5513 5505 5497 5490 5484 5478 5472 5467 5464 5461 5458 5457 5456 5456 5457 5458 5458 5459 5462 5465 5468 5472 5476 5481 5487 5492 5497 5502 5507 5511 5516 5522
5579 5573 5567 5560 5553 5546 5537 5529 5520 5511 5503 5494 5485 5477 5469 5463 5457 5451 5446 5441 5439 5435 5435 5434 5434 5435 5437 5437 5439 5441 5444 5448 5452 5456 5461 5467 5473 5479 5485 5490 5495 5501 5506
5569 5562 5555 5548 5540 5531 5522 5513 5503 5494 5484 5475 5467 5459 5451 5444 5438 5432 5427 5422 5418 5415 5413 5412 5413 5413 5415 5417 5419 5421 5425 5428 5432 5437 5443 5449 5455 5462 5468 5474 5479 5485 5491